TimeCST,TemperatureF,Dew PointF,Humidity,Sea Level PressureIn,VisibilityMPH,Wind Direction,Wind SpeedMPH,Gust SpeedMPH,PrecipitationIn,Events,Conditions,WindDirDegrees,DateUTC
6:00 AM,80,65,52,29.88,12,East,15.0,,,,,80,2013-04-06 12:00:00
6:00 AM,80.6,66.2,61,29.87,-9999.0,East,15.0,-,N/A,,Clear,80,2013-04-06 12:00:00
7:00 AM,82.4,66.2,58,29.89,-9999.0,East,13.8,-,N/A,,Clear,80,2013-04-06 13:00:00
8:00 AM,84.2,64.4,51,29.91,-9999.0,East,19.6,-,N/A,,Clear,80,2013-04-06 14:00:00
9:00 AM,88,64,35,29.92,12,ENE,20.7,,,,,60,2013-04-06 15:00:00
9:00 AM,87.8,64.4,46,29.91,-9999.0,ENE,20.7,-,N/A,,Clear,60,2013-04-06 15:00:00
10:00 AM,89.6,62.6,40,29.91,6.2,NNE,19.6,-,N/A,,Scattered Clouds,30,2013-04-06 16:00:00
11:00 AM,93.2,62.6,36,29.90,6.2,NE,18.4,-,N/A,,Scattered Clouds,40,2013-04-06 17:00:00
12:00 PM,94,60,23,29.88,12,ENE,19.6,,,,Scattered Clouds,70,2013-04-06 18:00:00
12:00 PM,93.2,60.8,34,29.87,6.2,ENE,19.6,-,N/A,,Scattered Clouds,70,2013-04-06 18:00:00
1:00 PM,95.0,62.6,34,29.83,6.2,ENE,19.6,-,N/A,,Scattered Clouds,60,2013-04-06 19:00:00
2:00 PM,95.0,60.8,32,29.79,6.2,East,20.7,-,N/A,,Scattered Clouds,90,2013-04-06 20:00:00
3:00 PM,95,64,27,29.79,12,ENE,19.6,,,,Scattered Clouds,60,2013-04-06 21:00:00
3:00 PM,95.0,64.4,36,29.77,6.2,ENE,19.6,-,N/A,,Scattered Clouds,60,2013-04-06 21:00:00
4:00 PM,93.2,62.6,36,29.76,-9999.0,ENE,16.1,-,N/A,,Clear,60,2013-04-06 22:00:00
5:00 PM,89.6,64.4,43,29.77,-9999.0,NE,19.6,-,N/A,,Clear,50,2013-04-06 23:00:00
6:00 PM,86,65,40,29.80,12,NE,20.7,,,,Clear,50,2013-04-07 00:00:00
6:00 PM,86.0,64.4,48,29.79,-9999.0,NE,20.7,-,N/A,,Clear,50,2013-04-07 00:00:00
7:00 PM,84.2,64.4,51,29.82,-9999.0,ENE,20.7,-,N/A,,Clear,60,2013-04-07 01:00:00
8:00 PM,82.4,64.4,54,29.85,-9999.0,ENE,17.3,-,N/A,,Clear,70,2013-04-07 02:00:00
9:00 PM,80.6,64.4,58,29.87,-9999.0,ENE,20.7,-,N/A,,Clear,70,2013-04-07 03:00:00
10:00 PM,80.6,64.4,58,29.88,-9999.0,ENE,25.3,-,N/A,,Clear,60,2013-04-07 04:00:00